This demonstration page uses our WeatherBlox Daily Observations layout. Learn more.

Left ArrowRight Arrow

38.20091, -84.87328

Hourly Observations for August 6, 2019

Temp ( °F °C ) Dew Point ( °F °C ) Humidity (%) Winds ( mph kmh ) Pressure ( in mb ) Visibility ( mi km ) Precip ( " mm )
12:53 am 00:53 Clear 71 21.7 65 18.3 81 81 Calm 29.92 1013 10 16 0.00 0.00
1:53 am 01:53 Clear 70 21.1 65 18.3 84 84 Calm 29.91 1013 9 14 0.00 0.00
2:53 am 02:53 Clear 68 20 65 18.3 90 90 Calm 29.89 1012 10 16 0.00 0.00
3:53 am 03:53 Clear 68 20 64 17.8 87 87 S 3 6 29.88 1012 10 16 0.00 0.00
4:53 am 04:53 Clear 67 19.4 64 17.8 91 91 Calm 29.87 1012 10 16 0.00 0.00
5:53 am 05:53 Clear 67 19.4 63 17.2 87 87 Calm 29.88 1012 9 14 0.00 0.00
6:53 am 06:53 Sunny 66 18.9 63 17.2 90 90 Calm 29.91 1013 8 13 0.00 0.00
7:53 am 07:53 Sunny 69 20.6 65 18.3 87 87 SW 3 6 29.90 1013 7 11 0.00 0.00
8:53 am 08:53 Hazy 74 23.3 67 19.4 79 79 WSW 6 9 29.90 1013 6 10 0.00 0.00
9:53 am 09:53 Hazy 78 25.6 69 20.6 74 74 SW 7 11 29.88 1012 5 8 0.00 0.00
10:53 am 10:53 Hazy 81 27.2 69 20.6 67 67 SW 8 13 29.89 1012 4 6 0.00 0.00
11:08 am 11:08 Hazy 83 28.3 69 20.6 63 63 WSW 7 11 29.87 1011 2 3 0.00 0.00
11:53 am 11:53 Hazy 86 30 70 21.1 59 59 SW 13 20 29.88 1012 5 8 0.00 0.00
12:53 pm 12:53 Mostly Cloudy 84 28.9 69 20.6 61 61 SW 8 13 29.87 1012 10 16 0.00 0.00
1:53 pm 13:53 Partly Cloudy 85 29.4 69 20.6 59 59 W 9 15 29.86 1011 9 14 0.00 0.00
2:53 pm 14:53 Mostly Cloudy 87 30.6 68 20 53 53 WSW 10 17 29.84 1011 10 16 0.00 0.00
3:53 pm 15:53 Mostly Sunny 87 30.6 65 18.3 48 48 SW 15 24 29.82 1010 10 16 0.00 0.00
4:53 pm 16:53 Sunny 87 30.6 68 20 53 53 WSW 10 17 29.81 1010 10 16 0.00 0.00
5:53 pm 17:53 Sunny 88 31.1 67 19.4 50 50 WSW 10 17 29.79 1009 10 16 0.00 0.00
6:53 pm 18:53 Mostly Sunny 86 30 67 19.4 53 53 WSW 9 15 29.79 1009 10 16 0.00 0.00
7:53 pm 19:53 Partly Cloudy 83 28.3 69 20.6 63 63 SW 7 11 29.79 1009 10 16 0.00 0.00
8:00 pm 20:00 Partly Cloudy with Nearby Thunderstorms 82 27.8 69 20.6 65 65 SSW 6 9 29.77 1008 10 16 0.00 0.00
8:12 pm 20:12 Partly Cloudy with Thunderstorms 83 28.3 69 20.6 63 63 WNW 5 7 29.79 1009 10 16 0.00 0.00
8:27 pm 20:27 Partly Cloudy with Nearby Thunderstorms 82 27.8 69 20.6 65 65 VRB 3 6 29.77 1008 5 8 0.00 0.00
8:53 pm 20:53 Mostly Cloudy with Nearby Thunderstorms 77 25 71 21.7 82 82 Calm 29.78 1009 10 16 0.00 0.00
9:13 pm 21:13 Cloudy 77 25 72 22.2 85 85 NNW 10 17 29.79 1009 9 14 0.00 0.00
9:53 pm 21:53 Partly Cloudy 75 23.9 70 21.1 84 84 Calm 29.79 1009 10 16 0.00 0.00
10:28 pm 22:28 Mostly Cloudy with Nearby Thunderstorms 75 23.9 70 21.1 84 84 SE 3 6 29.79 1009 10 16 0.00 0.00
10:46 pm 22:46 Mostly Cloudy 76 24.4 70 21.1 82 82 Calm 29.79 1009 10 16 0.00 0.00
10:53 pm 22:53 Mostly Cloudy with Nearby Thunderstorms 76 24.4 69 20.6 79 79 N 3 6 29.79 1009 10 16 0.00 0.00
11:12 pm 23:12 Cloudy with Thunderstorms 74 23.3 71 21.7 91 91 N 5 7 29.80 1009 3 5 0.08 2.03
11:27 pm 23:27 Mostly Cloudy with Nearby Thunderstorms 74 23.3 71 21.7 91 91 VRB 3 6 29.80 1009 9 14 0.09 2.29
11:53 pm 23:53 Mostly Cloudy with Nearby Thunderstorms 73 22.8 71 21.7 94 94 Calm 29.80 1009 8 13 0.09 2.29

Powered by AerisWeather